Weather History for Little Rock AFB, AR

Change the Weather History Date:

Thursday, December 5, 2013

  Actual Average Record
Temperature  
Mean Temperature 44 °F -  
Max Temperature 57 °F 56 °F 82 °F (1998)
Min Temperature 32 °F 34 °F 21 °F (1988)
Degree Days  
Heating Degree Days 20    
Moisture  
Dew Point 34 °F    
Average Humidity 87    
Maximum Humidity 100    
Minimum Humidity 61    
Precipitation  
Precipitation 0.39 in - - ()
Sea Level Pressure  
Sea Level Pressure 30.10 in    
Wind  
Wind Speed 9 mph (North)    
Max Wind Speed 16 mph    
Max Gust Speed 24 mph    
Visibility 9 miles    
Events Rain    
Averages and records for this station are not official NWS values.
T = Trace of Precipitation, MM = Missing Value Source: NWS Daily Summary

Daily Weather History Graph

Daily Weather History Graph

Search for Another Location

Airport:

Trip Planner

Search our weather history database for the weather conditions in past years. The results will help you decide how hot, cold, wet, or windy it might be!

Date:

Astronomy

Dec. 05, 2013 Rise Set
Actual Time 7:01 AM CST 4:56 PM CST
Civil Twilight 6:33 AM CST 5:24 PM CST
Nautical Twilight 6:02 AM CST 5:56 PM CST
Astronomical Twilight 5:31 AM CST 6:26 PM CST
Moon 9:25 AM CST (12/5) 8:14 PM CST (12/5)
Length of Visible Light 10h 50m
Length of Day
9h 55m
Waxing Crescent, 11% of the Moon is Illuminated
Dec 5
Waxing Crescent
Dec 9
First Quarter
Dec 17
Full
Dec 25
Last Quarter
Jan 1
New

Hourly Weather History & Observations

Time (CST) Temp. Windchill Dew Point Humidity Pressure Visibility Wind Dir Wind Speed Gust Speed Precip Events Conditions
12:58 AM 57.0 °F - 45.0 °F 64% 29.86 in 10.0 mi WNW 6.9 mph - N/A   Overcast
1:58 AM 55.0 °F - 45.0 °F 69% 29.86 in 10.0 mi WNW 9.2 mph - N/A   Overcast
2:58 AM 53.6 °F - 44.6 °F 72% 29.88 in 10.0 mi WNW 6.9 mph - N/A   Overcast
3:58 AM 52.3 °F - 44.1 °F 73% 29.91 in 10.0 mi WNW 10.4 mph - N/A   Overcast
4:58 AM 52.3 °F - 44.1 °F 73% 29.91 in 10.0 mi WNW 9.2 mph - N/A   Overcast
5:58 AM 49.1 °F - 41.2 °F 74% 29.99 in 10.0 mi NNW 15.0 mph 20.7 mph N/A   Overcast
6:13 AM 48.2 °F - 39.2 °F 71% 30.00 in 10.0 mi NNW 10.4 mph 20.7 mph N/A Rain Light Rain
6:26 AM 46.4 °F 40.1 °F 39.2 °F 76% 30.01 in 10.0 mi NNW 15.0 mph 20.7 mph N/A   Overcast
6:29 AM 44.6 °F 38.1 °F 39.2 °F 81% 30.01 in 10.0 mi North 13.8 mph 21.9 mph N/A   Light Drizzle
6:52 AM 42.8 °F 36.6 °F 37.4 °F 81% 30.03 in 10.0 mi North 11.5 mph 17.3 mph N/A   Overcast
6:58 AM 43.2 °F 35.6 °F 37.4 °F 80% 30.04 in 10.0 mi North 16.1 mph 24.2 mph 0.00 in   Overcast
7:18 AM 42.8 °F 37.5 °F 35.6 °F 76% 30.04 in 10.0 mi NNW 9.2 mph 20.7 mph N/A   Overcast
7:59 AM 42.8 °F 37.5 °F 35.6 °F 76% 30.05 in 10.0 mi NNW 9.2 mph 20.7 mph N/A   Overcast
8:55 AM 42.8 °F 38.6 °F 30.2 °F 61% 30.08 in 10.0 mi North 6.9 mph - N/A   Overcast
9:55 AM 41.0 °F 34.3 °F 28.4 °F 61% 30.10 in 10.0 mi North 11.5 mph - N/A   Overcast
10:55 AM 41.0 °F 34.3 °F 28.4 °F 61% 30.11 in 10.0 mi North 11.5 mph 18.4 mph N/A   Overcast
11:55 AM 39.2 °F 31.6 °F 28.4 °F 65% 30.09 in 10.0 mi North 12.7 mph 19.6 mph N/A   Overcast
12:55 PM 37.4 °F 31.4 °F 30.2 °F 75% 30.09 in 10.0 mi NNW 8.1 mph - N/A Rain Light Rain
1:55 PM 35.6 °F 28.6 °F 30.2 °F 81% 30.09 in 10.0 mi North 9.2 mph 17.3 mph N/A Rain Light Rain
2:55 PM 35.6 °F 29.2 °F 32.0 °F 87% 30.09 in 10.0 mi NNE 8.1 mph - N/A   Overcast
2:58 PM 35.6 °F 29.9 °F 32.0 °F 87% 30.11 in 6.0 mi NNE 6.9 mph - 0.01 in Rain Light Rain
4:58 PM 35.1 °F 29.3 °F 33.3 °F 93% 30.12 in 10.0 mi NNE 6.9 mph - 0.03 in   Overcast
5:03 PM 35.6 °F 31.7 °F 32.0 °F 87% 30.11 in 10.0 mi NNE 4.6 mph - N/A   Light Drizzle
5:08 PM 35.6 °F 29.9 °F 32.0 °F 87% 30.11 in 10.0 mi NNE 6.9 mph - N/A Rain Light Rain
5:43 PM 35.6 °F 28.0 °F 32.0 °F 87% 30.12 in 6.0 mi North 10.4 mph - N/A Rain Heavy Rain
5:53 PM 35.6 °F 28.6 °F 32.0 °F 87% 30.12 in 7.0 mi North 9.2 mph - N/A Rain Light Rain
5:58 PM 34.9 °F 27.7 °F 32.9 °F 92% 30.14 in 9.0 mi North 9.2 mph - 0.07 in Rain Light Rain
6:03 PM 35.6 °F 28.6 °F 32.0 °F 87% 30.12 in 8.0 mi NNE 9.2 mph - N/A Rain Rain
6:13 PM 33.8 °F 26.4 °F 32.0 °F 93% 30.14 in 9.0 mi North 9.2 mph - N/A Rain Light Rain
6:43 PM 33.8 °F 26.4 °F 32.0 °F 93% 30.14 in 10.0 mi North 9.2 mph - N/A Rain Light Rain
6:48 PM 33.8 °F 27.0 °F 32.0 °F 93% 30.15 in 10.0 mi NNE 8.1 mph - N/A   Overcast
6:58 PM 34.5 °F 27.3 °F 32.0 °F 90% 30.17 in 10.0 mi NNE 9.2 mph - 0.03 in   Overcast
7:07 PM 33.8 °F 27.0 °F 32.0 °F 93% 30.13 in 10.0 mi NE 8.1 mph - N/A   Light Drizzle
7:17 PM 33.8 °F 24.8 °F 32.0 °F 93% 30.13 in 10.0 mi NNE 12.7 mph - N/A Rain Light Rain
7:52 PM 33.8 °F 28.6 °F 32.0 °F 93% 30.14 in 10.0 mi NNE 5.8 mph - N/A Rain Light Rain
7:58 PM 34.3 °F 30.2 °F 32.5 °F 93% 30.14 in 10.0 mi NNE 4.6 mph - 0.02 in Rain Light Rain
8:09 PM 33.8 °F 25.8 °F 32.0 °F 93% 30.12 in 10.0 mi NNE 10.4 mph - N/A   Overcast
8:10 PM 33.8 °F 25.3 °F 32.0 °F 93% 30.13 in 10.0 mi NNE 11.5 mph - N/A   Light Drizzle
8:17 PM 33.8 °F 27.0 °F 32.0 °F 93% 30.13 in 10.0 mi NNE 8.1 mph - N/A   Overcast
8:19 PM 33.8 °F 25.3 °F 32.0 °F 93% 30.14 in 10.0 mi NNE 11.5 mph - N/A   Light Drizzle
8:29 PM 33.8 °F 26.4 °F 32.0 °F 93% 30.13 in 10.0 mi NNE 9.2 mph - N/A Rain Light Rain
8:32 PM 33.8 °F 27.7 °F 32.0 °F 93% 30.15 in 10.0 mi Variable 6.9 mph - N/A   Overcast
8:55 PM 33.8 °F 27.0 °F 32.0 °F 93% 30.18 in 9.0 mi North 8.1 mph - N/A Rain Light Rain
8:58 PM 33.8 °F 26.4 °F 32.0 °F 93% 30.18 in 7.0 mi North 9.2 mph - 0.00 in Rain Rain
9:38 PM 32.0 °F 23.6 °F 32.0 °F 100% 30.13 in 10.0 mi NE 10.4 mph - N/A Rain Light Rain
9:43 PM 32.0 °F 24.8 °F 32.0 °F 100% 30.14 in 10.0 mi NNE 8.1 mph - N/A Rain Light Rain
9:48 PM 32.0 °F 25.6 °F 32.0 °F 100% 30.15 in 10.0 mi North 6.9 mph - N/A Rain Light Rain
9:53 PM 32.0 °F 26.4 °F 32.0 °F 100% 30.17 in 9.0 mi NNE 5.8 mph - N/A Rain Light Rain
9:55 PM 32.0 °F 23.6 °F 32.0 °F 100% 30.16 in 9.0 mi NNE 10.4 mph - N/A Rain Light Rain
9:58 PM 32.0 °F 23.6 °F 32.0 °F 100% 30.17 in 8.0 mi NE 10.4 mph - 0.07 in Rain Light Rain
10:03 PM 32.0 °F 24.2 °F 32.0 °F 100% 30.17 in 7.0 mi NNE 9.2 mph - N/A Rain Light Rain
10:08 PM 32.0 °F 23.0 °F 32.0 °F 100% 30.14 in 6.0 mi NNE 11.5 mph - N/A Rain Rain
10:28 PM 32.0 °F 26.4 °F 32.0 °F 100% 30.19 in 8.0 mi North 5.8 mph - N/A Rain Light Rain
10:58 PM 33.4 °F 28.1 °F 32.2 °F 95% 30.18 in 9.0 mi Variable 5.8 mph - 0.08 in Rain Light Rain
11:23 PM 32.0 °F 24.2 °F 32.0 °F 100% 30.16 in 9.0 mi NNE 9.2 mph - N/A Rain Light Rain
11:24 PM 32.0 °F 24.2 °F 32.0 °F 100% 30.16 in 10.0 mi NNE 9.2 mph - N/A Rain Light Rain
11:34 PM 32.0 °F 27.5 °F 32.0 °F 100% 30.19 in 10.0 mi NNW 4.6 mph - N/A Rain Light Rain
11:54 PM 32.0 °F 24.2 °F 32.0 °F 100% 30.17 in 6.0 mi North 9.2 mph - N/A Rain Light Rain
11:58 PM 33.3 °F 24.6 °F 32.0 °F 95% 30.16 in 8.0 mi NNE 11.5 mph - 0.08 in Rain Light Rain